Newport Airport, OR

1:32 PM PST on November 22, 2017 (GMT -0800)
Newport Municipal

Weather History for KONP - February, 2013

Change the Weather History Date:

Thursday, February 28, 2013

  Actual Average Record
Temperature  
Mean Temperature 49 °F -  
Max Temperature 50 °F 49 °F 64 °F (2014)
Min Temperature 48 °F 39 °F 32 °F (2012)
Degree Days  
Heating Degree Days 16    
Moisture  
Dew Point 49 °F    
Average Humidity 98    
Maximum Humidity 100    
Minimum Humidity 94    
Precipitation  
Precipitation 0.53 in - - ()
Sea Level Pressure  
Sea Level Pressure 30.36 in    
Wind  
Wind Speed 22 mph (SSW)    
Max Wind Speed 28 mph    
Max Gust Speed 39 mph    
Visibility 2 miles    
Events Rain    
Averages and records for this station are not official NWS values.
T = Trace of Precipitation, MM = Missing Value Source: NWS Daily Summary

Daily Weather History Graph

Daily Weather History Graph

Search for Another Location

Airport or City:

Trip Planner

Search our weather history database for the weather conditions in past years. The results will help you decide how hot, cold, wet, or windy it might be!

Date:

Astronomy

Feb. 28, 2013 Rise Set
Actual Time 6:54 AM PST 6:03 PM PST
Civil Twilight 6:25 AM PST 6:32 PM PST
Nautical Twilight 5:51 AM PST 7:06 PM PST
Astronomical Twilight 5:18 AM PST 7:40 PM PST
Moon 9:47 PM PST (2/28) 7:58 AM PST (2/28)
Length of Visible Light 12h 07m
Length of Day
11h 08m
Waning Gibbous, 90% of the Moon is Illuminated
Feb 28
Waning Gibbous
Mar 4
Last Quarter
Mar 11
New
Mar 19
First Quarter
Mar 27
Full

Hourly Weather History & Observations

Time (PST) Temp. Dew Point Humidity Pressure Visibility Wind Dir Wind Speed Gust Speed Precip Events Conditions
12:15 AM 50.0 °F 48.2 °F 94% 30.23 in 2.0 mi South 24.2 mph 32.2 mph N/A Rain Light Rain
12:35 AM 50.0 °F 48.2 °F 94% 30.23 in 2.5 mi South 27.6 mph 33.4 mph 0.01 in Rain Light Rain
12:55 AM 50.0 °F 48.2 °F 94% 30.23 in 2.5 mi South 25.3 mph 33.4 mph 0.01 in Rain Light Rain
1:15 AM 50.0 °F 48.2 °F 94% 30.23 in 2.5 mi South 24.2 mph 33.4 mph N/A Rain Light Rain
1:35 AM 50.0 °F 48.2 °F 94% 30.23 in 1.8 mi South 24.2 mph 33.4 mph 0.01 in Rain Light Rain
1:55 AM 50.0 °F 48.2 °F 94% 30.24 in 1.8 mi South 27.6 mph 39.1 mph 0.02 in Rain Light Rain
2:15 AM 50.0 °F 48.2 °F 94% 30.24 in 2.0 mi South 26.5 mph 34.5 mph 0.01 in Rain Light Rain
2:35 AM 50.0 °F 48.2 °F 94% 30.24 in 2.0 mi SSW 20.7 mph 32.2 mph 0.01 in Rain Light Rain
2:55 AM 48.2 °F 48.2 °F 100% 30.25 in 1.8 mi SSW 25.3 mph 31.1 mph 0.02 in Rain Light Rain
3:15 AM 48.2 °F 48.2 °F 100% 30.25 in 1.8 mi SSW 20.7 mph 28.8 mph 0.01 in Rain Light Rain
3:35 AM 48.2 °F 48.2 °F 100% 30.24 in 2.0 mi SSW 24.2 mph 31.1 mph 0.02 in Rain Light Rain
3:55 AM 48.2 °F 48.2 °F 100% 30.25 in 1.8 mi South 23.0 mph 29.9 mph 0.02 in Rain Light Rain
4:15 AM 48.2 °F 48.2 °F 100% 30.25 in 1.8 mi South 20.7 mph 28.8 mph 0.01 in Rain Light Rain
4:35 AM 48.2 °F 48.2 °F 100% 30.25 in 1.5 mi SSW 20.7 mph 27.6 mph 0.01 in Rain Light Rain
4:55 AM 48.2 °F 48.2 °F 100% 30.26 in 1.5 mi SSW 23.0 mph 33.4 mph 0.02 in Rain Rain
5:15 AM 48.2 °F 48.2 °F 100% 30.26 in 1.8 mi South 24.2 mph 29.9 mph N/A Rain Rain
5:35 AM 48.2 °F 48.2 °F 100% 30.27 in 1.8 mi South 20.7 mph 28.8 mph 0.01 in Rain Light Rain
5:55 AM 50.0 °F 48.2 °F 94% 30.27 in 2.0 mi South 23.0 mph 29.9 mph 0.03 in Rain Rain
6:15 AM 50.0 °F 48.2 °F 94% 30.28 in 3.0 mi South 20.7 mph 29.9 mph 0.01 in Rain Rain
6:35 AM 50.0 °F 48.2 °F 94% 30.28 in 2.5 mi South 21.9 mph 28.8 mph 0.04 in Rain Rain
6:55 AM 50.0 °F 48.2 °F 94% 30.29 in 2.0 mi South 21.9 mph 28.8 mph 0.06 in Rain Rain
7:15 AM 50.0 °F 48.2 °F 94% 30.29 in 2.5 mi South 20.7 mph 28.8 mph 0.01 in Rain Light Rain
7:35 AM 50.0 °F 48.2 °F 94% 30.29 in 2.0 mi South 23.0 mph 28.8 mph 0.03 in Rain Rain
7:55 AM 50.0 °F 48.2 °F 94% 30.30 in 1.5 mi South 20.7 mph 29.9 mph 0.05 in Rain Rain
8:15 AM 50.0 °F 48.2 °F 94% 30.31 in 1.5 mi SSW 23.0 mph 32.2 mph 0.02 in Rain Rain
8:35 AM 50.0 °F 48.2 °F 94% 30.31 in 1.8 mi South 21.9 mph 28.8 mph 0.05 in Rain Rain
8:55 AM 50.0 °F 50.0 °F 100% 30.32 in 1.8 mi South 21.9 mph 28.8 mph 0.07 in Rain Light Rain
9:15 AM 50.0 °F 50.0 °F 100% 30.33 in 1.5 mi South 19.6 mph 28.8 mph N/A Rain Light Rain
9:35 AM 50.0 °F 50.0 °F 100% 30.33 in 1.2 mi South 21.9 mph 29.9 mph 0.01 in Rain Rain
9:55 AM 50.0 °F 48.2 °F 94% 30.35 in 1.5 mi South 21.9 mph 33.4 mph 0.04 in Rain Rain
10:15 AM 50.0 °F 50.0 °F 100% 30.35 in 1.5 mi South 23.0 mph 32.2 mph 0.01 in Rain Rain
10:35 AM 50.0 °F 50.0 °F 100% 30.35 in 2.0 mi South 19.6 mph 28.8 mph 0.02 in Rain Light Rain
10:55 AM 50.0 °F 50.0 °F 100% 30.35 in 1.2 mi South 21.9 mph 28.8 mph 0.02 in   Drizzle
11:15 AM 50.0 °F 50.0 °F 100% 30.37 in 1.5 mi South 24.2 mph 32.2 mph N/A   Light Drizzle
11:35 AM 50.0 °F 50.0 °F 100% 30.37 in 1.0 mi South 20.7 mph 31.1 mph N/A Rain Rain
11:55 AM 50.0 °F 50.0 °F 100% 30.38 in 1.0 mi South 20.7 mph 31.1 mph 0.01 in Rain Rain
12:15 PM 50.0 °F 50.0 °F 100% 30.38 in 1.5 mi South 26.5 mph 32.2 mph 0.02 in Rain Rain
12:35 PM 50.0 °F 50.0 °F 100% 30.38 in 1.8 mi South 24.2 mph 29.9 mph 0.03 in Rain Light Rain
12:55 PM 50.0 °F 50.0 °F 100% 30.38 in 1.2 mi South 21.9 mph 31.1 mph 0.04 in Rain Light Rain
1:15 PM 50.0 °F 50.0 °F 100% 30.39 in 1.2 mi SSW 21.9 mph 31.1 mph 0.01 in Rain Rain
1:35 PM 50.0 °F 50.0 °F 100% 30.39 in 1.5 mi South 18.4 mph 28.8 mph 0.02 in Rain Light Rain
1:55 PM 50.0 °F 50.0 °F 100% 30.39 in 2.5 mi South 20.7 mph 28.8 mph 0.03 in Rain Rain
2:15 PM 50.0 °F 50.0 °F 100% 30.39 in 2.0 mi South 20.7 mph 28.8 mph N/A Rain Light Rain
2:35 PM 50.0 °F 50.0 °F 100% 30.39 in 2.0 mi South 20.7 mph 25.3 mph 0.01 in Rain Light Rain
2:55 PM 50.0 °F 50.0 °F 100% 30.40 in 1.2 mi SSW 26.5 mph - 0.01 in   Drizzle
3:15 PM 50.0 °F 50.0 °F 100% 30.40 in 1.0 mi South 20.7 mph 27.6 mph 0.01 in Rain Rain
3:35 PM 50.0 °F 50.0 °F 100% 30.41 in 1.0 mi South 23.0 mph 28.8 mph 0.03 in Rain Light Rain
3:55 PM 50.0 °F 50.0 °F 100% 30.42 in 1.5 mi South 20.7 mph 26.5 mph 0.04 in Rain Rain
4:15 PM 50.0 °F 50.0 °F 100% 30.42 in 1.2 mi South 20.7 mph 26.5 mph N/A Rain Light Rain
4:35 PM 50.0 °F 50.0 °F 100% 30.42 in 1.0 mi South 21.9 mph 27.6 mph 0.01 in Rain Light Rain
4:55 PM 50.0 °F 50.0 °F 100% 30.43 in 1.0 mi South 18.4 mph 25.3 mph 0.01 in Rain Heavy Rain
5:15 PM 50.0 °F 50.0 °F 100% 30.43 in 1.0 mi South 18.4 mph 24.2 mph 0.01 in Rain Light Rain
5:35 PM 50.0 °F 50.0 °F 100% 30.42 in 1.8 mi South 18.4 mph 21.9 mph 0.01 in Rain Light Rain
5:55 PM 50.0 °F 50.0 °F 100% 30.43 in 3.0 mi South 18.4 mph 26.5 mph 0.01 in   Overcast
6:15 PM 50.0 °F 50.0 °F 100% 30.43 in 2.0 mi South 20.7 mph 25.3 mph N/A   Overcast
6:35 PM 50.0 °F 50.0 °F 100% 30.44 in 2.0 mi SSW 20.7 mph 27.6 mph N/A   Light Drizzle
6:55 PM 50.0 °F 50.0 °F 100% 30.45 in 1.8 mi SSW 20.7 mph 25.3 mph N/A Rain Light Rain
7:15 PM 50.0 °F 50.0 °F 100% 30.45 in 2.0 mi South 15.0 mph 27.6 mph 0.01 in Rain Light Rain
7:35 PM 50.0 °F 50.0 °F 100% 30.46 in 2.0 mi SSW 18.4 mph - 0.01 in Rain Light Rain
7:55 PM 50.0 °F 50.0 °F 100% 30.46 in 2.0 mi SSW 19.6 mph 25.3 mph 0.01 in Rain Light Rain
8:15 PM 50.0 °F 50.0 °F 100% 30.46 in 3.0 mi SSW 18.4 mph 26.5 mph 0.01 in   Overcast
8:35 PM 50.0 °F 50.0 °F 100% 30.46 in 4.0 mi South 18.4 mph 23.0 mph 0.01 in   Overcast
8:55 PM 50.0 °F 50.0 °F 100% 30.46 in 3.0 mi SSW 17.3 mph 25.3 mph 0.01 in   Overcast
9:15 PM 50.0 °F 50.0 °F 100% 30.47 in 2.0 mi South 16.1 mph 23.0 mph N/A   Overcast
9:35 PM 50.0 °F 50.0 °F 100% 30.47 in 2.0 mi South 17.3 mph 24.2 mph N/A   Overcast
9:55 PM 50.0 °F 50.0 °F 100% 30.48 in 1.8 mi South 16.1 mph 24.2 mph N/A   Overcast
10:15 PM 50.0 °F 50.0 °F 100% 30.48 in 4.0 mi South 18.4 mph 26.5 mph N/A   Drizzle
10:35 PM 50.0 °F 50.0 °F 100% 30.49 in 1.8 mi South 16.1 mph 25.3 mph N/A   Overcast
10:55 PM 50.0 °F 50.0 °F 100% 30.49 in 1.5 mi SSW 20.7 mph 25.3 mph N/A   Overcast
11:15 PM 50.0 °F 50.0 °F 100% 30.49 in 1.2 mi South 18.4 mph 27.6 mph N/A   Overcast
11:35 PM 50.0 °F 50.0 °F 100% 30.49 in 4.0 mi South 17.3 mph 20.7 mph N/A   Overcast